Torna al catalogo

COSMOS 926 DEB

AttivoPO
NORAD 13491·DEBRIS·🇷🇺 Russia

Lanciato Jul 8, 1977 da Plesetsk Cosmodrome

Loading…

Prossimi Passaggi (prossime 24 ore)

TLE

AggiornatoSource: Space-Track

Epoca: Sep 14, 2026, 20:40 UTC

1 13491U 77062D   26257.86171219  .00000146  00000-0  13749-3 0  9995
2 13491  82.9262 283.8598 0019038 165.7612  13.1147 13.74709449265188

Traccia COSMOS 926 DEB in tempo reale con AllMySat

Download on the App Store